When you browse on this site, cookies collect data to enhance your experience and personalize the content and advertising you see.
Visit our Privacy Policy to learn more. By continuing to use the site, you agree to this use of cookies and data.
  • In United Kingdom
  • List of Countries
  • For 7 days
  • Water Temperature
  • Weather Map
  • Weather Widgets
  • user-avatar
    Login

    Hourly Weather Costesti

    Today, 16 September, Monday

    Time Temperature Precipitation Wind Pressure Humidity
    00:00 +18°C° 0 mm 1 mps 745 mmHg 48%
    01:00 +18°C° 0 mm 1 mps 745 mmHg 50%
    02:00 +16°C° 0 mm 1 mps 744 mmHg 52%
    03:00 +16°C° 0 mm 1 mps 744 mmHg 54%
    04:00 +15°C° 0 mm 1 mps 744 mmHg 56%
    05:00 +15°C° 0 mm 2 mps 743 mmHg 57%
    06:00 +17°C° 0 mm 2 mps 743 mmHg 53%
    07:00 +18°C° 0 mm 2 mps 743 mmHg 48%
    08:00 +20°C° 0 mm 2 mps 743 mmHg 44%
    09:00 +23°C° 0 mm 2 mps 743 mmHg 38%
    10:00 +26°C° 0 mm 2 mps 742 mmHg 32%
    11:00 +28°C° 0 mm 3 mps 742 mmHg 27%
    12:00 +29°C° 0 mm 2 mps 742 mmHg 23%
    13:00 +31°C° 0 mm 2 mps 741 mmHg 20%
    14:00 +32°C° 0 mm 2 mps 741 mmHg 17%
    15:00 +32°C° 0 mm 2 mps 741 mmHg 17%
    16:00 +32°C° 0 mm 2 mps 740 mmHg 17%
    17:00 +32°C° 0 mm 2 mps 740 mmHg 17%
    18:00 +29°C° 0 mm 1 mps 740 mmHg 22%
    19:00 +26°C° 0 mm 1 mps 740 mmHg 27%
    20:00 +23°C° 0 mm 1 mps 740 mmHg 32%
    21:00 +21°C° 0 mm 2 mps 740 mmHg 34%
    22:00 +21°C° 0 mm 2 mps 740 mmHg 37%
    23:00 +20°C° 0 mm 2 mps 740 mmHg 39%

    Tomorrow, 17 September, Tuesday

    Time Temperature Precipitation Wind Pressure Humidity
    00:00 +19°C° 0 mm 2 mps 740 mmHg 40%
    01:00 +18°C° 0 mm 2 mps 740 mmHg 40%
    02:00 +18°C° 0 mm 2 mps 740 mmHg 41%
    03:00 +18°C° 0 mm 2 mps 739 mmHg 42%
    04:00 +17°C° 0 mm 2 mps 739 mmHg 43%
    05:00 +17°C° 0 mm 2 mps 739 mmHg 43%
    06:00 +18°C° 0 mm 2 mps 739 mmHg 41%
    07:00 +21°C° 0 mm 1 mps 739 mmHg 38%
    08:00 +22°C° 0 mm 1 mps 740 mmHg 35%
    09:00 +25°C° 0 mm 1 mps 740 mmHg 33%
    10:00 +27°C° 0 mm 2 mps 740 mmHg 30%
    11:00 +30°C° 0 mm 2 mps 740 mmHg 27%
    12:00 +31°C° 0 mm 3 mps 739 mmHg 25%
    13:00 +33°C° 0 mm 3 mps 739 mmHg 23%
    14:00 +34°C° 0 mm 4 mps 738 mmHg 21%
    15:00 +33°C° 0 mm 4 mps 738 mmHg 22%
    16:00 +33°C° 0 mm 4 mps 738 mmHg 23%
    17:00 +33°C° 0 mm 4 mps 738 mmHg 24%
    18:00 +29°C° 0 mm 3 mps 738 mmHg 29%
    19:00 +27°C° 0 mm 3 mps 738 mmHg 34%
    20:00 +24°C° 0 mm 2 mps 738 mmHg 40%
    21:00 +23°C° 0 mm 2 mps 738 mmHg 42%
    22:00 +21°C° 0 mm 2 mps 738 mmHg 44%
    23:00 +20°C° 0 mm 2 mps 738 mmHg 46%

    Day after tomorrow, 18 September, Wednesday

    Time Temperature Precipitation Wind Pressure Humidity
    00:00 +20°C° 0 mm 2 mps 737 mmHg 48%
    01:00 +19°C° 0 mm 2 mps 737 mmHg 49%
    02:00 +19°C° 0 mm 2 mps 737 mmHg 50%
    03:00 +19°C° 0 mm 2 mps 737 mmHg 51%
    04:00 +19°C° 0 mm 2 mps 738 mmHg 52%
    05:00 +19°C° 0 mm 2 mps 738 mmHg 53%
    06:00 +20°C° 0 mm 3 mps 738 mmHg 49%
    07:00 +21°C° 0 mm 4 mps 739 mmHg 44%
    08:00 +23°C° 0 mm 5 mps 739 mmHg 39%
    09:00 +22°C° 0 mm 5 mps 740 mmHg 38%
    10:00 +22°C° 0 mm 5 mps 740 mmHg 38%
    11:00 +22°C° 0 mm 6 mps 741 mmHg 37%
    12:00 +21°C° 0 mm 5 mps 741 mmHg 37%
    13:00 +21°C° 0 mm 5 mps 741 mmHg 38%
    14:00 +20°C° 0 mm 5 mps 741 mmHg 39%
    15:00 +21°C° 0 mm 5 mps 741 mmHg 36%
    16:00 +22°C° 0 mm 4 mps 742 mmHg 33%
    17:00 +22°C° 0 mm 4 mps 742 mmHg 30%
    18:00 +20°C° 0 mm 3 mps 742 mmHg 33%
    19:00 +19°C° 0 mm 3 mps 743 mmHg 36%
    20:00 +17°C° 0 mm 2 mps 743 mmHg 39%
    21:00 +16°C° 0 mm 2 mps 744 mmHg 41%
    22:00 +14°C° 0 mm 3 mps 744 mmHg 43%
    23:00 +14°C° 0 mm 3 mps 744 mmHg 46%

    19 September, Thursday

    Time Temperature Precipitation Wind Pressure Humidity
    00:00 +13°C° 0 mm 4 mps 745 mmHg 47%
    01:00 +13°C° 0 mm 4 mps 745 mmHg 49%
    02:00 +12°C° 0 mm 5 mps 745 mmHg 51%
    03:00 +10°C° 0 mm 5 mps 745 mmHg 50%
    04:00 +10°C° 0 mm 5 mps 745 mmHg 49%
    05:00 +10°C° 0 mm 4 mps 745 mmHg 48%
    06:00 +11°C° 0 mm 4 mps 745 mmHg 46%
    07:00 +11°C° 0 mm 4 mps 745 mmHg 45%
    08:00 +12°C° 0 mm 4 mps 745 mmHg 43%
    09:00 +14°C° 0 mm 4 mps 745 mmHg 40%
    10:00 +17°C° 0 mm 3 mps 745 mmHg 38%
    11:00 +18°C° 0 mm 2 mps 745 mmHg 35%
    12:00 +20°C° 0 mm 2 mps 744 mmHg 32%
    13:00 +22°C° 0 mm 1 mps 744 mmHg 28%
    14:00 +23°C° 0 mm 1 mps 743 mmHg 25%
    15:00 +23°C° 0 mm 1 mps 743 mmHg 24%
    16:00 +23°C° 0 mm 2 mps 743 mmHg 23%
    17:00 +23°C° 0 mm 2 mps 742 mmHg 22%
    18:00 +20°C° 0 mm 2 mps 743 mmHg 25%
    19:00 +19°C° 0 mm 1 mps 743 mmHg 28%
    20:00 +16°C° 0 mm 1 mps 743 mmHg 31%
    21:00 +15°C° 0 mm 2 mps 743 mmHg 32%
    22:00 +14°C° 0 mm 2 mps 744 mmHg 33%
    23:00 +12°C° 0 mm 3 mps 744 mmHg 34%

    20 September, Friday

    Time Temperature Precipitation Wind Pressure Humidity
    00:00 +12°C° 0 mm 3 mps 744 mmHg 37%
    01:00 +11°C° 0 mm 3 mps 744 mmHg 40%
    02:00 +10°C° 0 mm 3 mps 744 mmHg 42%
    03:00 +9°C° 0 mm 2 mps 745 mmHg 45%
    04:00 +8°C° 0 mm 2 mps 745 mmHg 48%
    05:00 +8°C° 0 mm 2 mps 745 mmHg 51%
    06:00 +9°C° 0 mm 2 mps 745 mmHg 47%
    07:00 +10°C° 0 mm 2 mps 745 mmHg 43%
    08:00 +12°C° 0 mm 2 mps 746 mmHg 40%
    09:00 +13°C° 0 mm 3 mps 746 mmHg 34%
    10:00 +16°C° 0 mm 3 mps 746 mmHg 29%
    11:00 +18°C° 0 mm 4 mps 746 mmHg 24%
    12:00 +19°C° 0 mm 4 mps 746 mmHg 22%
    13:00 +20°C° 0 mm 5 mps 746 mmHg 20%
    14:00 +20°C° 0 mm 5 mps 745 mmHg 18%
    15:00 +20°C° 0 mm 5 mps 745 mmHg 18%
    16:00 +19°C° 0 mm 6 mps 745 mmHg 19%
    17:00 +19°C° 0 mm 6 mps 745 mmHg 19%
    18:00 +16°C° 0 mm 5 mps 746 mmHg 22%
    19:00 +14°C° 0 mm 5 mps 747 mmHg 24%
    20:00 +11°C° 0 mm 4 mps 747 mmHg 27%
    21:00 +10°C° 0 mm 3 mps 748 mmHg 32%
    22:00 +9°C° 0 mm 2 mps 748 mmHg 37%
    23:00 +8°C° 0 mm 2 mps 749 mmHg 42%

    21 September, Saturday

    Time Temperature Precipitation Wind Pressure Humidity
    00:00 +8°C° 0 mm 1 mps 749 mmHg 44%
    01:00 +8°C° 0 mm 1 mps 750 mmHg 46%
    02:00 +8°C° 0 mm 1 mps 750 mmHg 48%
    03:00 +7°C° 0 mm 1 mps 750 mmHg 49%
    04:00 +7°C° 0 mm 1 mps 751 mmHg 50%
    05:00 +7°C° 0 mm 1 mps 751 mmHg 51%
    06:00 +8°C° 0 mm 1 mps 751 mmHg 48%
    07:00 +9°C° 0 mm 1 mps 751 mmHg 45%
    08:00 +11°C° 0 mm 1 mps 751 mmHg 42%
    09:00 +12°C° 0 mm 2 mps 751 mmHg 37%
    10:00 +14°C° 0 mm 2 mps 752 mmHg 33%
    11:00 +16°C° 0 mm 2 mps 752 mmHg 29%
    12:00 +17°C° 0 mm 2 mps 751 mmHg 26%
    13:00 +18°C° 0 mm 2 mps 751 mmHg 23%
    14:00 +19°C° 0 mm 2 mps 750 mmHg 21%
    15:00 +19°C° 0 mm 2 mps 750 mmHg 21%
    16:00 +19°C° 0 mm 2 mps 750 mmHg 20%
    17:00 +19°C° 0 mm 2 mps 750 mmHg 20%
    18:00 +17°C° 0 mm 2 mps 750 mmHg 24%
    19:00 +14°C° 0 mm 2 mps 751 mmHg 28%
    20:00 +12°C° 0 mm 1 mps 751 mmHg 32%
    21:00 +12°C° 0 mm 2 mps 751 mmHg 33%
    22:00 +10°C° 0 mm 2 mps 751 mmHg 35%
    23:00 +9°C° 0 mm 3 mps 752 mmHg 36%
    Show more